TimeCDT,TemperatureF,Dew PointF,Humidity,Sea Level PressureIn,VisibilityMPH,Wind Direction,Wind SpeedMPH,Gust SpeedMPH,PrecipitationIn,Events,Conditions,WindDirDegrees,DateUTC
12:53 AM,39.0,32.0,76,30.28,10.0,SE,6.9,-,N/A,,Clear,140,2011-10-01 05:53:00
1:53 AM,37.9,32.0,79,30.29,10.0,SSE,8.1,-,N/A,,Clear,150,2011-10-01 06:53:00
2:53 AM,36.0,30.9,82,30.30,10.0,SSE,8.1,-,N/A,,Clear,150,2011-10-01 07:53:00
3:53 AM,35.6,30.2,81,30.26,10.0,SE,9.2,-,N/A,,Clear,140,2011-10-01 08:53:00
4:53 AM,34.0,30.0,85,30.29,10.0,SSE,8.1,-,N/A,,Clear,150,2011-10-01 09:53:00
5:53 AM,36.0,30.9,82,30.28,10.0,SSE,9.2,-,N/A,,Clear,160,2011-10-01 10:53:00
6:53 AM,34.0,30.0,85,30.29,10.0,SSE,6.9,-,N/A,,Clear,150,2011-10-01 11:53:00
7:53 AM,34.0,30.9,89,30.30,10.0,SSE,5.8,-,N/A,,Clear,150,2011-10-01 12:53:00
8:53 AM,37.9,33.1,83,30.31,10.0,SSE,11.5,-,N/A,,Clear,160,2011-10-01 13:53:00
9:53 AM,44.1,33.1,65,30.30,10.0,South,12.7,20.7,N/A,,Clear,170,2011-10-01 14:53:00
10:53 AM,48.9,34.0,56,30.29,10.0,South,18.4,25.3,N/A,,Clear,170,2011-10-01 15:53:00
11:53 AM,54.0,35.1,49,30.27,10.0,South,18.4,26.5,N/A,,Clear,170,2011-10-01 16:53:00
12:53 PM,57.9,35.1,42,30.24,10.0,SSE,18.4,-,N/A,,Clear,160,2011-10-01 17:53:00
1:53 PM,61.0,36.0,39,30.21,10.0,South,15.0,-,N/A,,Clear,180,2011-10-01 18:53:00
2:53 PM,63.0,35.1,35,30.19,10.0,SSE,15.0,24.2,N/A,,Clear,160,2011-10-01 19:53:00
3:53 PM,63.0,36.0,37,30.17,10.0,South,15.0,-,N/A,,Clear,170,2011-10-01 20:53:00
4:53 PM,64.0,37.0,37,30.16,10.0,SSE,18.4,26.5,N/A,,Clear,160,2011-10-01 21:53:00
5:53 PM,62.1,36.0,38,30.14,10.0,South,12.7,25.3,N/A,,Clear,170,2011-10-01 22:53:00
6:53 PM,57.9,36.0,44,30.14,10.0,South,12.7,-,N/A,,Clear,170,2011-10-01 23:53:00
7:53 PM,55.4,37.4,51,30.10,10.0,SSE,9.2,-,N/A,,Clear,150,2011-10-02 00:53:00
8:53 PM,52.0,37.0,57,30.15,10.0,SSE,6.9,-,N/A,,Clear,160,2011-10-02 01:53:00
9:53 PM,50.0,35.6,58,30.11,10.0,SSE,6.9,-,N/A,,Clear,150,2011-10-02 02:53:00
10:53 PM,48.0,36.0,63,30.14,10.0,SSE,6.9,-,N/A,,Clear,150,2011-10-02 03:53:00
11:53 PM,46.9,36.0,66,30.13,10.0,SE,8.1,-,N/A,,Clear,140,2011-10-02 04:53:00